Location: Domont
(49.0278°N, 2.3264°E)
Time: 09:28:11
(UTC+00:00)

EO-79 - Visible Passes

Search period start: 29 June 2022 00:00
Search period end: 09 July 2022 00:00
Orbit: 587 x 605 km, 98.0° (Epoch: 28 June)

Date Brightness Start Highest point End Pass type
(mag) Time Alt. Az. Time Alt. Az. Time Alt. Az.
29 Jun ? 00:39:44 10° NE 00:42:54 20° E 00:45:22 13° SE visible
29 Jun ? 02:14:42 10° N 02:18:45 46° WNW 02:22:02 15° SW visible
30 Jun ? 00:49:23 10° NE 00:52:54 25° E 00:55:23 15° SE visible
30 Jun ? 02:24:43 10° N 02:28:37 37° WNW 02:32:03 13° SW visible
01 Jul ? 00:59:07 10° NNE 01:02:53 31° E 01:05:23 17° SSE visible
01 Jul ? 02:34:46 10° N 02:38:28 30° WNW 02:42:03 11° SW visible
02 Jul ? 01:08:53 10° NNE 01:12:52 38° E 01:15:23 19° SSE visible
02 Jul ? 02:44:51 10° N 02:48:19 25° WNW 02:51:46 10° WSW visible
03 Jul ? 01:18:41 10° NNE 01:22:48 48° E 01:25:23 21° SSE visible
03 Jul ? 02:54:58 10° NNW 02:58:08 21° WNW 03:01:17 10° WSW visible
04 Jul ? 01:28:32 10° NNE 01:32:44 61° ESE 01:35:23 22° S visible
04 Jul ? 03:05:10 10° NNW 03:07:56 17° WNW 03:10:43 10° WSW visible
05 Jul ? 01:38:24 10° NNE 01:42:39 77° ESE 01:45:23 22° S visible
06 Jul ? 00:15:04 10° ENE 00:16:21 11° E 00:17:38 10° ESE visible
06 Jul ? 01:48:18 10° NNE 01:52:34 85° WNW 01:55:22 21° SSW visible
07 Jul ? 00:24:07 10° ENE 00:26:23 14° E 00:28:38 10° ESE visible
07 Jul ? 01:58:14 10° N 02:02:28 68° WNW 02:05:21 20° SSW visible
08 Jul ? 00:33:31 10° NE 00:36:23 17° E 00:38:39 12° SE visible
08 Jul ? 02:08:11 10° N 02:12:20 54° WNW 02:15:19 18° SW visible
